{"data":{"norad_id":64026,"epoch":"2026-05-25T02:32:51.752256Z","epoch_age_seconds":59661,"freshness":"FRESH","line1":"1 64026U 25102E   26145.10615454  .00003267  00000+0  28147-3 0  9994","line2":"2 64026  70.0008 281.9801 0003125 268.0845  91.9956 14.98334113 57488","mean_motion":14.98334113,"eccentricity":0.0003125,"inclination_deg":70.0008,"raan_deg":281.9801,"arg_perigee_deg":268.0845,"mean_anomaly_deg":91.9956,"bstar":0.00028147,"rev_number":5748,"period_min":96.106735307307,"perigee_km":569.87124055659,"apogee_km":574.215103164,"semimajor_km":6950.1801718603,"source":"CELESTRAK","updated_at":"2026-05-25T13:38:20.224914Z"}}